User: anonymous   Login
Location: Unspecified
(0.0000°N, 0.0000°E)
Time: 11:25:28
(UTC+02:00)
Language:

GP-B - Orbit

View from above orbital plane
View from above orbital plane
View from above satellite
View from above satellite

Ground track
Ground track

The orbit data is extracted from the following two-line orbital elements,

1 28230U 04014A   17296.95459455 +.00000147 +00000-0 +17882-4 0  9997
2 28230 089.8374 119.5455 0003279 084.7439 275.4157 14.78573002185329
Epoch (UTC): 23 October 2017 22:54:36
Eccentricity: 0.0003279
inclination: 89.8374°
perigee height: 631 km
apogee height: 636 km
right ascension of ascending node: 119.5455°
argument of perigee: 84.7439°
revolutions per day: 14.78573002
mean anomaly at epoch: 275.4157°
orbit number at epoch: 18532

The dashed part of the orbit path shows where the satellite is in the earth's shadow,  

DLR